Wetbulb
57.99 58.48 58.73 59.18 59.93 60.45 60.57 61.43 62.09 62.92 63.59 63.72 63.80 63.18 62.35 61.70 61.65 61.17 60.60 59.72 59.19 59.78 60.60 60.76 60.88 62.05 60.25 60.36 61.58 61.86 61.79 62.58 58.61 60.73 64.13 66.48 66.75 66.60 67.55 68.26 68.47 69.25 68.75
56.02 56.68 56.68 57.35 58.06 58.51 59.11 59.93 60.96 60.59 61.06 60.96 61.21 61.57 61.73 61.33 61.30 60.54 59.13 58.07 58.05 57.70 58.54 59.57 59.55 59.46 61.06 61.15 60.38 61.05 60.95 61.87 61.82 59.28 62.84 63.96 65.59 67.13 67.11 67.44 66.93 67.28 68.60
55.08 55.05 55.78 55.88 55.99 56.24 56.38 56.86 57.22 57.65 58.19 58.95 59.10 59.11 59.90 60.27 60.55 60.48 59.48 58.42 58.31 58.77 59.26 58.54 58.42 59.19 59.47 58.88 59.60 58.46 58.93 60.87 62.67 60.20 59.27 63.42 64.56 65.85 66.07 66.84 65.79 66.34 68.07
53.58 53.66 53.68 54.22 54.15 54.34 54.74 55.10 55.32 55.67 55.61 55.97 56.61 57.06 57.68 58.44 59.11 59.49 59.74 59.29 59.04 58.50 59.64 59.64 58.19 57.88 58.02 58.35 57.89 57.63 58.26 58.09 58.71 58.09 58.32 60.99 63.47 65.10 63.91 63.26 63.03 64.23 63.38
51.66 51.53 51.83 52.38 52.79 52.75 52.78 53.14 53.41 53.36 53.39 53.74 53.66 54.11 55.11 56.30 56.00 57.77 58.36 58.88 59.36 58.88 59.52 58.23 59.36 58.42 56.21 56.51 55.97 56.99 57.59 56.15 56.74 56.82 56.83 58.25 60.00 60.08 59.78 62.10 61.40 62.85 62.92
50.26 49.94 50.46 50.62 50.75 50.78 51.06 50.97 51.13 51.07 51.57 51.90 51.90 52.00 53.07 53.34 49.26 49.17 53.21 57.87 58.26 58.14 58.01 58.55 58.67 56.58 55.79 53.44 53.17 53.19 54.37 55.66 56.53 55.69 56.48 55.49 57.01 59.61 60.52 60.06 61.18 60.27 59.81
48.66 48.82 48.89 49.08 48.56 48.73 48.89 48.85 49.13 49.51 50.18 50.11 50.38 50.78 50.86 51.99 47.08 46.31 47.64 53.07 55.35 57.17 57.51 58.01 57.35 56.68 55.10 55.97 52.51 51.39 51.89 51.09 52.19 57.72 57.62 57.84 57.54 59.48 60.13 59.21 61.26 61.21 61.41
47.34 47.36 47.54 47.19 46.75 47.14 47.52 47.53 48.04 48.32 48.38 48.10 48.34 48.94 49.14 49.98 45.88 44.62 45.35 50.77 52.13 54.42 55.56 56.19 56.73 56.24 55.04 54.75 55.17 54.69 55.72 56.99 57.43 56.68 57.90 59.44 60.12 61.31 61.23 60.58 59.61 60.31 58.17
45.77 45.57 45.81 45.88 45.58 45.80 45.61 46.02 46.77 46.53 46.36 46.46 46.80 45.43 45.22 46.69 44.35 43.69 45.93 50.14 50.55 51.83 53.93 54.46 53.13 53.25 49.63 46.01 53.75 53.08 54.51 55.46 54.74 50.73 51.15 50.20 48.79 48.38 55.53 56.88 54.93 54.30 54.19
44.35 44.43 44.80 44.72 44.23 43.91 44.48 44.71 45.21 43.22 42.54 43.71 42.41 43.17 44.36 44.91 43.71 42.19 44.28 48.39 49.37 49.91 50.55 51.45 47.60 49.61 45.77 44.35 51.90 53.61 52.90 54.06 53.50 54.86 54.91 52.17 51.64 55.28 49.99 57.87 56.86 54.25 55.20
43.41 43.20 43.23 43.75 43.42 42.61 42.12 42.04 41.72 41.37 40.45 40.21 41.10 42.39 43.41 44.33 45.91 42.23 42.02 47.16 46.12 47.07 47.60 48.52 51.21 45.38 43.75 42.92 43.19 52.66 51.85 52.68 51.76 55.18 55.38 56.00 57.53 57.51 54.36 56.90 56.55 54.93 55.46
41.88 41.64 41.76 41.29 39.77 39.44 38.66 38.83 39.40 39.32 38.75 39.13 39.52 40.49 41.79 44.10 43.63 42.59 40.68 40.95 44.05 46.57 47.48 49.25 51.67 45.38 42.92 42.27 43.10 44.72 43.31 45.11 50.81 52.87 53.29 54.45 55.55 54.68 57.58 55.27 56.41 59.32 60.42
38.70 37.37 37.26 37.43 36.84 37.58 37.56 37.70 37.74 38.55 38.17 37.72 38.50 39.58 40.56 44.24 44.67 43.45 41.63 40.70 41.58 46.12 48.47 48.31 44.69 42.67 42.69 44.98 44.31 41.75 42.82 53.91 52.81 53.39 53.70 54.40 55.31 57.08 55.36 56.72 57.49 58.69 58.97
34.40 34.33 35.24 35.15 36.29 37.29 37.43 37.56 37.53 37.63 37.62 37.78 38.28 38.48 39.57 41.65 43.93 45.60 48.86 48.88 44.23 45.66 46.40 48.80 48.65 45.81 43.25 44.09 47.71 51.81 54.31 54.57 54.63 56.00 56.67 56.05 55.92 56.01 56.04 57.27 56.97 57.69 58.62
33.85 34.40 34.70 35.15 35.29 35.70 36.93 37.53 37.68 38.80 38.95 38.60 39.34 40.02 39.82 39.76 41.31 40.87 40.25 43.95 49.36 49.04 49.56 52.46 52.04 50.29 49.74 51.73 53.56 54.92 54.87 54.97 53.98 53.82 53.39 54.22 55.17 56.45 55.60 57.04 58.25 58.90 58.40
32.94 33.00 33.74 34.51 34.45 35.27 35.48 35.89 37.49 37.65 38.07 37.84 37.74 38.69 40.58 39.18 38.88 38.98 39.14 38.63 38.49 39.60 48.74 49.93 48.43 49.81 51.25 53.46 53.65 54.87 54.40 53.78 55.78 56.30 56.24 55.57 55.52 55.90 56.19 57.50 58.83 59.32 58.92
31.62 32.33 33.06 33.68 34.14 34.20 35.19 35.32 34.25 37.50 38.61 38.18 37.41 37.33 37.43 38.12 38.27 38.17 38.51 39.09 39.12 40.93 48.96 49.49 49.21 49.87 51.92 53.65 54.68 53.51 53.36 56.76 57.95 56.66 56.10 56.32 56.43 56.77 56.44 57.75 59.11 59.74 59.31
31.89 33.42 33.81 34.34 34.95 36.04 36.73 36.74 36.41 36.29 36.27 38.27 38.90 38.72 37.87 37.45 37.36 37.44 37.85 40.37 46.19 46.52 50.15 48.85 49.69 51.38 53.75 54.95 54.85 55.63 56.52 56.75 57.28 58.00 58.21 58.03 58.24 57.70 57.31 58.35 58.97 59.06 59.35
32.99 33.59 34.44 35.54 36.66 38.02 39.63 39.32 37.95 37.02 37.63 38.25 39.68 40.84 38.78 37.33 37.45 37.29 37.10 47.86 45.56 45.54 46.54 47.31 48.72 53.25 54.44 55.34 57.12 57.28 57.63 58.06 58.14 58.72 58.44 58.44 58.53 58.43 58.53 59.64 58.93 47.02 51.98
32.87 33.90 34.79 36.55 39.51 39.91 39.14 37.94 37.30 37.58 38.17 38.27 40.09 41.67 41.47 40.33 42.05 45.12 47.56 46.39 45.16 45.26 46.51 47.50 47.84 54.48 55.74 55.61 56.55 56.93 56.72 57.18 58.47 58.49 58.48 58.40 58.78 58.79 58.35 59.41 59.61 58.82 59.25
33.54 34.99 34.92 39.56 40.67 39.16 38.78 37.46 37.97 38.32 38.53 40.41 40.90 41.72 34.61 45.58 46.42 46.96 46.20 45.35 45.19 45.76 47.11 46.30 47.81 55.81 56.23 57.03 57.38 57.49 58.33 58.42 58.48 58.07 57.81 57.76 58.12 58.35 59.32 59.52 60.17 60.52 60.67
33.83 35.12 37.24 38.50 40.22 39.58 39.12 39.60 39.32 39.78 40.61 39.94 41.08 42.17 34.17 45.72 46.10 46.36 46.32 45.26 45.97 46.36 46.54 47.12 49.30 56.41 57.68 57.77 58.43 58.46 58.25 57.90 57.06 57.59 58.41 59.28 60.17 60.16 60.20 60.36 60.28 60.64 60.76
33.62 34.27 35.32 36.80 37.63 37.49 39.60 39.71 39.57 39.60 39.47 39.99 40.38 42.32 42.07 43.74 47.35 47.38 47.12 45.59 45.68 46.53 47.60 49.74 52.62 55.92 57.77 58.60 59.06 58.99 58.25 56.94 58.00 59.66 59.74 59.54 59.28 59.26 59.95 59.86 59.54 59.90 59.89
32.50 32.59 33.03 34.05 34.91 36.61 39.02 40.25 41.35 38.19 39.97 40.89 40.90 42.06 45.19 47.17 47.99 46.02 44.39 44.30 45.18 48.85 50.56 52.60 54.64 55.90 57.36 58.05 57.96 57.43 57.44 57.71 59.48 60.23 58.80 57.34 56.88 55.81 59.04 59.82 60.10 58.45 57.94
30.93 31.06 30.99 31.34 32.14 33.44 35.10 36.96 39.30 41.04 41.87 42.29 42.71 43.77 45.32 47.03 48.30 47.01 45.45 45.63 45.75 48.94 52.42 54.10 54.57 55.33 56.94 56.72 56.49 57.23 44.80 37.85 56.50 47.56 58.65 58.13 56.20 55.76 57.17 57.50 58.27 58.14 57.51
29.49 29.32 29.67 29.97 30.17 30.82 31.26 32.44 34.21 35.41 36.85 39.11 42.46 44.27 45.65 47.84 48.45 46.92 46.70 47.55 48.75 51.25 52.47 54.44 54.89 55.59 56.20 57.27 57.09 41.77 34.56 35.64 48.63 38.24 57.53 58.89 57.31 56.60 56.99 56.97 57.00 56.37 53.36
MSLP
1009.08 1009.36 1009.59 1009.66 1009.70 1009.70 1009.67 1009.56 1009.57 1009.66 1009.67 1009.59 1009.52 1009.61 1009.67 1009.60 1009.55 1009.57 1009.49 1009.46 1009.50 1009.43 1009.47 1009.36 1009.01 1008.94 1008.61 1008.41 1008.34 1008.09 1007.93 1007.97 1007.38 1006.77 1006.20 1005.64 1005.88 1005.92 1005.48 1005.59 1005.44 1004.76 1004.63
1009.23 1009.32 1009.32 1009.44 1009.50 1009.39 1009.22 1009.13 1009.25 1009.36 1009.25 1009.14 1009.11 1009.04 1008.96 1008.94 1009.02 1009.03 1008.84 1008.53 1008.52 1008.42 1008.29 1008.38 1008.20 1008.07 1008.16 1008.10 1007.74 1007.66 1007.56 1007.38 1007.09 1006.35 1005.68 1005.17 1005.03 1005.00 1004.95 1005.08 1004.82 1004.68 1004.80
1009.30 1009.35 1009.35 1009.30 1009.29 1009.29 1009.32 1009.38 1009.30 1009.01 1008.73 1008.65 1008.47 1008.17 1007.96 1007.92 1007.91 1007.90 1007.89 1007.79 1007.67 1007.48 1007.32 1007.26 1007.28 1007.28 1007.33 1007.24 1007.31 1007.10 1006.93 1006.74 1006.48 1006.32 1005.71 1005.28 1004.51 1004.45 1004.52 1004.76 1004.97 1004.88 1004.91
1009.74 1009.74 1009.67 1009.68 1009.68 1009.54 1009.39 1009.19 1008.90 1008.62 1008.42 1008.17 1007.92 1007.68 1007.47 1007.23 1007.03 1006.88 1006.77 1006.72 1006.60 1006.45 1006.45 1006.37 1006.33 1006.35 1006.35 1006.51 1006.56 1006.59 1006.47 1006.20 1006.05 1006.01 1005.56 1004.98 1004.62 1004.36 1004.56 1004.37 1004.06 1004.45 1004.73
1009.91 1009.84 1009.79 1009.67 1009.50 1009.23 1008.95 1008.65 1008.41 1008.14 1007.80 1007.58 1007.27 1006.91 1006.63 1006.43 1006.10 1005.90 1005.91 1005.70 1005.55 1005.44 1005.42 1005.48 1005.44 1005.44 1005.48 1005.68 1005.71 1005.76 1005.89 1005.68 1005.17 1004.66 1004.96 1004.81 1004.25 1004.23 1004.35 1003.98 1003.91 1003.84 1004.02
1010.24 1009.89 1009.63 1009.29 1008.93 1008.66 1008.39 1008.12 1007.81 1007.43 1007.08 1006.76 1006.32 1005.97 1005.51 1005.19 1004.97 1005.13 1005.33 1004.88 1004.59 1004.39 1004.18 1004.13 1004.34 1004.55 1004.79 1004.94 1005.20 1005.38 1005.44 1005.30 1004.89 1004.51 1003.84 1004.12 1004.34 1004.34 1004.26 1004.24 1003.79 1003.72 1003.39
1009.87 1009.53 1009.16 1008.85 1008.43 1008.12 1007.82 1007.53 1007.19 1006.79 1006.51 1006.06 1005.65 1005.37 1004.87 1004.67 1004.61 1004.73 1004.85 1004.50 1003.93 1003.45 1003.29 1003.14 1003.06 1003.07 1003.67 1003.83 1004.08 1004.41 1004.49 1004.65 1004.50 1004.28 1003.66 1003.31 1003.59 1003.85 1003.99 1004.17 1003.80 1003.76 1003.32
1009.45 1009.04 1008.71 1008.31 1007.87 1007.55 1007.26 1006.90 1006.60 1006.30 1005.87 1005.48 1005.09 1004.78 1004.36 1003.97 1003.89 1003.93 1003.99 1003.67 1002.99 1002.53 1002.35 1002.34 1002.23 1002.19 1002.62 1003.00 1003.01 1002.83 1002.52 1002.41 1002.73 1003.15 1002.97 1002.75 1002.88 1003.18 1003.44 1003.54 1003.65 1003.77 1004.01
1008.78 1008.41 1008.09 1007.84 1007.38 1007.04 1006.61 1006.31 1006.01 1005.67 1005.35 1004.97 1004.64 1004.41 1004.10 1003.59 1003.41 1003.39 1003.36 1002.60 1002.02 1001.67 1001.42 1001.58 1002.01 1001.97 1002.14 1002.51 1002.60 1002.11 1001.48 1000.98 1001.24 1001.50 1001.78 1002.04 1002.30 1002.78 1003.09 1003.75 1003.57 1003.51 1003.31
1008.31 1007.96 1007.75 1007.50 1007.12 1006.69 1006.32 1005.96 1005.58 1005.42 1005.05 1004.66 1004.29 1003.96 1003.45 1003.03 1002.66 1002.66 1002.68 1001.90 1001.19 1000.93 1000.93 1000.88 1001.00 1001.26 1001.36 1001.46 1001.51 1000.96 999.95 999.80 1000.16 1000.32 1000.64 1001.27 1001.67 1002.13 1002.23 1002.53 1002.69 1002.88 1002.29
1008.25 1007.83 1007.43 1007.07 1006.70 1006.44 1006.07 1005.67 1005.31 1004.93 1004.67 1004.23 1003.67 1003.18 1002.75 1002.30 1001.79 1001.77 1001.81 1001.57 1001.03 1000.73 1000.38 999.99 999.47 999.72 1000.14 1000.26 1000.28 1000.03 999.05 999.00 998.85 999.07 999.58 1000.01 1000.65 1001.23 1001.61 1001.99 1002.02 1002.14 1001.94
1007.97 1007.42 1006.97 1006.67 1006.50 1006.17 1005.76 1005.20 1004.85 1004.46 1003.96 1003.43 1002.98 1002.40 1001.88 1001.31 1000.81 1000.74 1000.71 1000.67 1000.41 1000.27 999.74 999.24 999.01 999.05 999.31 999.45 999.32 998.38 997.83 997.45 997.12 997.16 998.05 998.57 999.39 1000.14 1000.74 1001.49 1001.73 1001.69 1001.59
1007.64 1007.16 1006.79 1006.38 1005.96 1005.48 1004.98 1004.44 1003.99 1003.58 1003.15 1002.62 1002.19 1001.63 1001.07 1000.42 1000.18 999.91 999.85 999.72 999.81 999.77 999.02 998.55 998.72 998.85 998.68 998.23 997.30 996.47 995.63 994.23 993.85 994.56 995.87 997.15 998.34 999.17 1000.25 1000.69 1001.97 1001.70 1001.72
1007.45 1006.90 1006.39 1005.85 1005.18 1004.68 1004.13 1003.57 1003.09 1002.63 1002.28 1001.87 1001.44 1001.12 1000.72 1000.28 999.89 999.45 998.91 998.44 998.68 998.77 998.75 998.28 998.02 998.30 998.10 997.44 996.24 995.21 994.34 993.40 993.04 993.60 995.25 996.70 997.84 999.02 999.57 1000.37 1000.84 1000.96 1000.89
1006.99 1006.40 1005.79 1005.24 1004.63 1003.92 1003.38 1002.77 1002.28 1001.73 1001.54 1001.31 1000.94 1000.78 1000.51 1000.17 999.88 999.78 999.67 999.02 998.15 997.36 997.81 997.45 997.50 997.43 997.10 996.77 995.94 995.20 994.52 994.28 994.36 995.06 995.85 996.54 997.20 998.05 999.05 999.65 999.99 1000.25 1000.38
1006.50 1005.87 1005.36 1004.77 1004.09 1003.38 1002.67 1001.78 1001.35 1001.13 1000.84 1000.67 1000.54 1000.45 1000.08 1000.03 999.80 999.61 999.32 998.83 998.27 998.09 997.77 997.24 997.04 996.87 996.56 996.06 995.59 995.36 995.72 995.26 995.56 995.87 995.87 996.42 997.25 997.97 998.71 999.29 999.62 1000.13 1000.34
1006.22 1005.61 1004.96 1004.34 1003.53 1002.66 1001.97 1001.32 1000.63 1000.13 1000.05 999.92 999.74 999.67 999.62 999.49 999.31 999.27 999.11 998.54 997.93 997.76 997.29 996.91 996.51 996.64 995.98 995.42 995.35 995.90 995.78 995.62 995.92 996.13 996.57 997.02 997.50 998.01 998.31 998.83 999.47 999.62 999.79
1005.80 1005.15 1004.41 1003.57 1002.77 1001.96 1001.17 1000.47 1000.18 999.94 999.58 999.19 998.99 998.74 998.64 998.70 998.86 998.87 998.64 998.20 997.74 997.38 996.92 996.91 996.37 996.05 995.65 995.49 995.60 995.93 996.07 996.19 996.31 996.46 996.81 997.10 997.42 998.01 998.56 998.79 999.02 999.40 999.88
1005.17 1004.34 1003.66 1002.85 1001.99 1001.12 1000.40 999.84 999.77 999.70 999.35 998.95 998.46 997.96 998.08 998.39 998.63 998.47 998.33 997.86 997.97 997.70 996.99 996.70 996.47 995.82 995.72 995.78 995.87 996.05 996.03 996.24 996.40 996.50 996.96 997.48 997.90 998.05 998.30 998.61 999.07 1000.00 999.98
1004.51 1003.73 1003.14 1002.26 1001.30 1000.65 1000.24 999.92 999.64 999.42 999.15 998.77 998.22 997.81 998.00 998.20 998.10 997.65 997.55 997.71 997.82 997.88 997.86 997.13 996.73 995.85 995.63 995.66 995.94 996.26 996.43 996.41 996.57 996.82 997.25 997.58 997.81 998.01 998.21 998.47 998.74 999.14 999.62
1004.19 1003.38 1002.69 1001.68 1001.11 1000.80 1000.33 1000.01 999.71 999.36 999.01 998.59 998.24 997.93 997.84 997.26 997.03 996.88 997.17 997.53 997.54 997.59 997.61 997.37 996.81 995.74 995.49 995.57 995.96 995.90 996.02 996.20 996.57 996.97 997.30 997.62 997.92 998.04 998.25 998.43 998.72 999.00 999.37
1004.21 1003.41 1002.60 1001.95 1001.30 1000.82 1000.47 1000.03 999.80 999.50 999.17 998.90 998.52 998.19 997.94 997.48 997.07 996.98 996.99 997.38 997.52 997.76 997.58 997.50 996.68 995.60 995.28 995.50 995.52 995.76 995.92 996.21 996.66 996.99 997.28 997.61 997.93 998.06 998.23 998.50 998.78 998.98 999.28
1004.51 1003.71 1003.06 1002.40 1001.81 1001.19 1000.64 1000.28 999.99 999.80 999.58 999.18 998.80 998.29 998.00 997.62 996.86 996.82 996.96 997.36 997.68 997.88 997.64 996.91 996.31 995.89 995.89 996.03 996.11 996.00 995.93 996.40 996.93 997.22 997.34 997.59 997.85 998.20 998.48 998.58 998.72 998.83 999.36
1005.05 1004.40 1003.76 1003.17 1002.57 1001.84 1001.17 1000.50 999.94 1000.02 999.76 999.37 999.04 998.57 997.88 997.33 997.06 997.29 997.54 997.61 997.46 996.87 996.59 996.24 995.91 995.68 995.96 996.28 996.50 996.45 996.66 997.18 997.54 997.53 997.58 997.70 997.99 998.32 998.56 998.92 999.21 999.25 999.41
1005.81 1005.21 1004.61 1004.14 1003.60 1002.96 1002.27 1001.65 1000.96 1000.37 1000.09 999.70 999.33 998.94 998.39 997.73 997.32 997.50 997.62 997.51 997.22 996.94 996.22 996.02 995.96 996.12 996.36 996.52 996.47 996.63 997.43 997.72 997.64 998.02 998.13 998.27 998.35 998.54 998.64 998.68 999.12 999.31 999.43
1006.64 1006.15 1005.62 1005.07 1004.57 1004.07 1003.54 1002.94 1002.38 1001.89 1001.38 1000.80 1000.13 999.39 998.73 998.07 997.82 997.81 997.68 997.33 997.10 996.84 996.38 996.15 996.22 996.34 996.69 996.96 997.30 997.75 998.33 998.36 998.39 998.42 998.35 998.40 998.28 998.33 998.59 998.69 999.05 999.40 999.91
Wind_Speed
5 5 6 7 8 8 8 9 10 10 11 12 12 12 13 13 13 12 12 11 11 11 10 10 11 9 8 8 8 9 10 9 11 9 14 15 14 16 12 9 8 7 7
5 5 4 4 4 5 7 8 9 11 11 12 13 14 15 15 15 15 15 14 15 15 14 12 13 8 11 10 9 11 11 12 11 15 15 13 13 14 13 11 7 5 7
8 7 7 7 8 8 7 7 7 8 9 11 13 14 15 17 17 17 18 18 17 16 15 15 15 13 11 10 11 11 11 11 11 10 11 13 12 10 9 10 8 7 6
8 8 8 8 8 8 9 9 10 9 10 11 12 13 15 16 17 18 19 19 19 18 16 16 17 16 14 13 11 12 12 13 11 10 10 12 11 10 8 8 8 7 5
8 9 9 10 11 11 12 13 13 13 13 14 15 16 16 15 14 17 18 19 19 19 18 19 17 18 18 14 11 11 12 13 14 13 9 10 11 9 10 8 9 10 6
10 12 12 13 14 14 15 15 15 16 16 16 17 18 17 14 15 15 18 17 18 19 18 19 19 18 18 16 16 18 16 15 16 16 14 11 15 10 10 11 12 10 12
13 14 15 15 16 16 16 17 17 17 16 17 17 18 19 18 14 14 14 18 18 18 19 18 18 16 16 17 16 18 19 21 23 19 18 16 12 12 10 10 12 12 11
16 16 16 16 17 17 17 17 16 15 15 15 16 17 18 16 14 14 16 17 18 18 17 19 19 15 14 15 17 18 19 19 18 16 21 19 17 13 13 11 9 6 2
17 17 17 16 17 17 17 17 15 15 15 15 15 14 17 14 14 13 12 15 16 16 15 12 11 12 12 12 18 20 23 20 16 21 19 14 10 11 11 4 4 4 4
17 17 16 16 17 17 17 16 15 13 13 13 12 14 17 16 18 14 13 12 16 13 13 14 13 17 18 20 21 21 22 18 16 17 14 16 15 16 17 14 7 7 7
17 17 16 16 16 17 15 14 13 14 12 13 14 12 15 15 17 14 12 13 10 9 8 10 13 15 18 18 18 15 19 18 21 17 14 10 11 10 7 7 8 7 3
17 17 17 16 12 11 13 13 12 12 12 12 11 13 10 14 15 16 17 18 18 12 13 11 12 11 10 13 13 21 27 26 16 15 14 12 11 8 9 6 5 7 2
17 17 14 14 13 12 12 13 11 10 9 9 10 10 10 10 9 13 16 18 16 12 11 12 10 10 14 13 18 17 18 9 14 14 14 12 11 11 7 6 7 7 5
15 14 12 12 13 12 9 9 9 9 9 9 9 9 9 9 8 8 7 7 11 9 11 11 9 9 11 12 10 6 3 5 10 14 14 12 10 12 11 11 8 7 5
12 12 12 10 11 11 11 10 9 11 9 9 9 7 7 8 7 10 13 9 8 4 6 7 5 3 5 4 5 1 4 8 9 8 10 10 10 10 8 6 5 5 4
13 10 10 10 10 9 10 11 14 17 20 18 17 13 9 12 15 16 17 13 11 11 5 4 3 5 4 6 4 3 1 6 11 10 9 9 9 8 8 7 6 6 6
12 12 10 11 10 10 9 9 9 7 13 16 15 14 16 16 13 13 12 11 6 3 5 2 4 4 3 3 6 6 4 6 9 9 9 7 8 7 6 7 7 5 4
13 20 11 9 9 10 9 9 6 6 6 5 7 10 12 14 11 9 7 8 2 4 2 3 5 4 3 4 4 4 7 6 7 8 8 7 7 6 6 6 5 4 4
11 9 9 9 9 11 8 6 3 5 5 4 6 4 5 4 4 6 6 3 3 4 5 5 6 5 3 4 5 4 7 8 7 7 7 6 6 5 5 6 5 2 2
10 16 13 8 8 7 5 4 3 3 3 4 5 2 2 5 4 4 3 1 1 1 3 6 6 5 3 4 5 4 6 8 8 7 7 7 5 4 5 6 5 5 4
8 8 10 7 5 6 5 5 4 3 4 3 4 3 6 3 2 3 3 3 2 2 4 5 7 3 5 7 8 8 9 8 7 7 6 5 4 4 4 4 4 3 3
7 7 7 7 6 5 5 4 4 5 6 5 5 3 2 3 3 3 4 3 1 2 3 5 5 3 6 7 8 7 6 8 7 6 6 5 4 4 5 4 4 3 2
7 8 7 7 7 8 4 4 3 4 5 4 5 4 1 3 2 0 2 2 2 3 4 5 4 5 4 4 3 4 7 8 7 6 6 6 5 4 2 2 3 2 1
8 9 9 8 8 8 8 6 4 5 3 3 4 4 5 4 5 4 2 3 3 5 4 3 2 5 6 4 4 5 5 7 6 7 8 6 5 3 1 2 2 4 3
9 9 9 9 9 9 9 9 9 9 7 6 6 5 5 4 6 5 1 2 3 3 4 2 3 7 8 9 7 8 8 5 9 6 5 5 3 1 3 4 3 4 5
10 10 9 8 8 8 9 9 9 9 8 8 8 7 7 7 7 6 4 4 2 3 5 5 6 10 11 9 10 9 6 6 6 6 2 2 3 4 4 5 5 4 2
Wind_Direction
310 288 277 273 260 250 250 255 256 263 259 258 255 252 245 235 228 225 230 234 231 234 237 241 247 248 255 261 264 266 261 248 257 262 268 270 267 267 265 243 254 262 244
43 28 22 341 297 275 273 275 266 252 252 251 252 251 250 247 243 237 237 234 231 233 233 235 244 242 242 253 255 256 256 264 260 263 267 270 261 266 265 267 259 273 270
7 360 2 0 351 343 329 312 296 286 279 271 265 261 258 253 248 241 240 240 239 237 235 233 238 244 244 254 258 267 264 263 264 266 265 265 270 269 258 252 263 253 261
352 345 338 334 323 313 305 300 297 294 286 282 276 271 266 264 261 257 250 244 241 239 238 236 235 241 243 247 256 269 274 270 260 260 261 261 257 263 270 269 257 226 235
335 326 318 311 306 303 298 295 291 285 280 277 275 271 268 261 258 254 250 250 246 243 239 237 236 237 239 242 253 265 272 270 268 259 256 265 260 250 246 261 277 276 216
312 307 307 304 301 296 291 289 285 282 279 279 275 273 271 265 263 238 247 257 253 249 243 236 239 229 233 236 242 244 256 266 263 265 259 247 255 262 262 262 273 274 257
303 301 300 298 293 290 288 285 281 280 281 278 277 275 273 272 260 250 246 260 258 253 248 244 237 235 225 242 235 233 240 245 246 259 257 247 243 254 271 257 248 245 246
296 297 295 294 291 289 285 281 282 279 279 280 278 276 277 277 269 250 249 262 266 260 249 247 242 237 242 247 252 259 260 258 247 239 247 252 254 258 258 266 244 226 236
296 296 297 296 293 291 286 285 283 283 280 277 277 280 275 272 270 260 262 272 265 261 249 238 238 241 240 232 255 264 266 264 247 230 235 240 234 238 233 180 208 177 201
299 300 297 293 289 286 285 282 283 281 272 273 273 269 270 270 270 258 258 272 265 260 260 262 239 249 256 245 251 257 258 249 249 246 226 227 223 231 194 210 201 198 205
301 297 293 290 289 289 285 282 282 281 277 268 265 271 274 274 277 263 245 267 266 264 258 261 259 237 232 243 247 258 258 256 245 231 230 221 207 203 181 196 183 193 168
299 295 294 295 294 289 281 277 273 270 266 264 269 273 270 274 269 268 259 252 259 257 259 269 269 247 258 266 264 267 252 240 232 228 215 189 178 169 174 176 180 204 197
302 299 295 289 282 272 274 275 275 266 259 262 265 270 282 287 284 266 253 251 249 248 251 257 279 277 276 279 274 262 246 220 209 183 164 156 164 159 141 123 219 192 179
294 289 286 283 285 279 272 268 265 263 259 258 259 263 269 276 277 281 290 278 249 231 242 248 250 267 275 281 287 292 54 60 109 129 138 143 140 157 159 180 182 166 181
289 290 289 285 285 286 277 272 265 262 257 261 260 261 273 278 286 308 310 294 279 259 260 240 248 301 285 235 254 221 84 95 94 99 118 132 133 151 142 150 149 153 177
296 296 293 295 292 285 282 283 264 255 265 261 260 253 264 261 279 288 296 283 265 245 219 227 241 284 260 202 167 184 117 154 137 140 130 129 141 146 147 153 156 169 190
294 298 295 292 286 285 284 278 285 282 252 259 255 245 245 250 265 277 281 289 311 196 246 196 262 294 284 198 155 165 164 144 134 133 133 130 133 123 141 155 174 169 167
293 292 289 287 284 283 281 277 268 274 291 287 263 256 233 239 246 239 254 297 1 1 2 26 309 300 236 187 159 155 136 132 134 135 132 131 128 139 151 158 157 153 149
300 295 291 288 284 282 302 299 266 279 282 297 290 263 201 199 174 238 269 304 17 12 341 8 334 288 214 186 163 150 156 157 147 134 126 132 138 135 134 152 138 101 138
299 293 290 287 295 332 330 332 305 292 300 289 294 19 146 169 198 207 243 268 312 36 15 333 330 291 214 166 150 183 148 147 141 136 138 142 141 148 154 162 172 172 164
304 305 304 309 353 344 341 357 337 311 291 354 2 12 12 312 236 244 248 200 266 354 347 350 315 245 172 170 157 162 148 133 131 137 138 131 140 160 153 152 172 171 151
321 325 333 337 339 348 352 355 4 13 26 3 351 7 359 332 301 246 221 174 167 299 314 299 287 251 149 154 153 144 139 138 138 133 125 128 132 119 123 149 174 194 169
344 351 351 353 354 339 13 14 36 45 15 342 337 3 344 283 13 239 175 151 230 233 264 270 271 195 162 153 146 181 153 142 130 135 129 126 119 118 126 198 223 221 199
1 5 3 3 3 2 5 12 51 59 3 353 351 358 24 21 48 84 108 217 244 280 288 295 254 193 176 179 158 141 125 123 130 123 109 99 98 130 201 256 287 291 311
11 9 10 7 8 8 5 8 9 16 14 12 8 11 8 13 45 65 141 234 272 308 357 13 150 167 169 162 146 126 94 103 109 104 104 89 68 307 280 270 261 281 285
18 17 14 12 11 11 9 5 8 8 3 360 2 6 4 14 37 30 6 15 45 34 39 75 109 120 133 128 119 104 104 102 99 55 72 65 2 330 310 304 306 302 335